FW8985 Weather Reports


Display with metric or nautical units.
time (UTC)temp
F
wind
direction
speed
MPH
gust
MPH
rain 1hr
in
rain 24hr
in
rain mn
in
humidity
%
barometer
mb
20260508213534 67 137 0.0 6.0 0.00 0.00 0.00 64 1013.7
20260508213046 67 0 1.0 6.0 0.00 0.00 0.00 64 1013.8
20260508212534 67 107 1.0 6.0 0.00 0.00 0.00 63 1013.5
20260508212035 67 109 0.0 3.0 0.00 0.00 0.00 64 1013.6
20260508211546 67 167 1.0 3.0 0.00 0.00 0.00 62 1013.6
20260508211034 67 121 1.0 3.0 0.00 0.00 0.00 63 1013.6
20260508210534 67 97 1.0 3.0 0.00 0.00 0.00 62 1013.6
20260508210047 67 73 1.0 5.0 0.00 0.00 0.00 62 1013.6
20260508205533 68 171 1.0 6.0 0.00 0.00 0.00 61 1013.7
20260508205033 68 172 1.0 6.0 0.00 0.00 0.00 60 1013.7
20260508204545 68 188 1.0 4.0 0.00 0.00 0.00 60 1013.8
20260508204033 67 92 1.0 4.0 0.00 0.00 0.00 61 1013.8
20260508203532 67 163 1.0 5.0 0.00 0.00 0.00 62 1014.0
20260508203050 67 73 1.0 5.0 0.00 0.00 0.00 60 1013.9
20260508202534 67 178 0.0 5.0 0.00 0.00 0.00 58 1014.0
20260508202034 67 115 1.0 5.0 0.00 0.00 0.00 59 1014.0
20260508201546 67 0 1.0 9.0 0.00 0.00 0.00 60 1014.0
20260508201036 68 101 1.0 9.0 0.00 0.00 0.00 58 1013.9
20260508200534 68 210 2.0 9.0 0.00 0.00 0.00 55 1014.0
20260508200046 68 192 2.0 8.0 0.00 0.00 0.00 58 1014.2
20260508195533 68 158 2.0 9.0 0.00 0.00 0.00 56 1014.3
20260508195033 68 62 1.0 9.0 0.00 0.00 0.00 59 1014.4
20260508194544 69 215 3.0 9.0 0.00 0.00 0.00 52 1014.5
20260508194035 69 198 3.0 8.0 0.00 0.00 0.00 52 1014.4
20260508193533 69 49 2.0 4.0 0.00 0.00 0.00 56 1014.6
20260508193057 69 91 1.0 8.0 0.00 0.00 0.00 55 1014.7
20260508192534 69 86 3.0 9.0 0.00 0.00 0.00 55 1015.0
20260508192038 69 139 3.0 11.0 0.00 0.00 0.00 54 1015.0
20260508191550 69 194 3.0 12.0 0.00 0.00 0.00 56 1015.0
20260508191034 69 157 2.0 12.0 0.00 0.00 0.00 55 1015.2
20260508190534 69 171 4.0 10.0 0.00 0.00 0.00 55 1015.3
20260508190104 69 0 2.0 8.0 0.00 0.00 0.00 56 1015.3
20260508185539 69 248 3.0 8.0 0.00 0.00 0.00 56 1015.5
20260508185034 68 207 3.0 8.0 0.00 0.00 0.00 54 1015.5
20260508184545 69 182 2.0 9.0 0.00 0.00 0.00 59 1015.6
20260508184034 68 306 3.0 9.0 0.00 0.00 0.00 53 1015.6
20260508183533 69 189 4.0 12.0 0.00 0.00 0.00 56 1015.5
20260508183056 68 48 4.0 12.0 0.00 0.00 0.00 55 1015.6
20260508182534 68 180 2.0 10.0 0.00 0.00 0.00 55 1016.0
20260508182034 68 110 2.0 10.0 0.00 0.00 0.00 59 1015.9
20260508181543 69 112 3.0 10.0 0.00 0.00 0.00 54 1015.8
20260508181040 69 147 1.0 7.0 0.00 0.00 0.00 61 1015.9
20260508180534 69 60 3.0 8.0 0.00 0.00 0.00 59 1015.9
20260508180056 68 165 2.0 8.0 0.00 0.00 0.00 58 1016.0
20260508175534 68 62 3.0 8.0 0.00 0.00 0.00 54 1016.1
20260508175036 68 265 1.0 6.0 0.00 0.00 0.00 62 1016.3
20260508174600 67 188 1.0 6.0 0.00 0.00 0.00 61 1016.3
20260508174034 66 164 2.0 5.0 0.00 0.00 0.00 57 1016.3
20260508173534 67 0 1.0 13.0 0.00 0.00 0.00 60 1016.3
20260508173045 67 70 1.0 15.0 0.00 0.00 0.00 58 1016.3
20260508172534 68 92 4.0 15.0 0.00 0.00 0.00 56 1016.4
20260508172034 68 101 3.0 9.0 0.00 0.00 0.00 55 1016.5
20260508171546 68 247 4.0 9.0 0.00 0.00 0.00 53 1016.7
20260508171031 68 250 0.0 9.0 0.00 0.00 0.00 61 1016.7
20260508170534 67 185 3.0 8.0 0.00 0.00 0.00 61 1016.7
20260508170049 67 288 3.0 7.0 0.00 0.00 0.00 59 1016.8
20260508165533 67 196 1.0 6.0 0.00 0.00 0.00 56 1017.0
20260508165033 68 111 2.0 6.0 0.00 0.00 0.00 58 1017.0
20260508164551 68 47 1.0 6.0 0.00 0.00 0.00 60 1017.2
20260508164034 67 304 1.0 5.0 0.00 0.00 0.00 62 1017.4
20260508163537 67 0 2.0 8.0 0.00 0.00 0.00 58 1017.3
20260508163047 67 122 1.0 9.0 0.00 0.00 0.00 58 1017.4
20260508162534 67 165 3.0 9.0 0.00 0.00 0.00 59 1017.5
20260508162033 67 197 2.0 7.0 0.00 0.00 0.00 63 1017.5
20260508161545 67 113 2.0 6.0 0.00 0.00 0.00 59 1017.5
20260508161034 66 0 1.0 4.0 0.00 0.00 0.00 54 1017.5
20260508160534 66 0 1.0 6.0 0.00 0.00 0.00 59 1017.6
20260508160049 65 140 2.0 6.0 0.00 0.00 0.00 60 1017.7
20260508155531 65 152 2.0 6.0 0.00 0.00 0.00 57 1017.7
20260508155032 66 72 1.0 5.0 0.00 0.00 0.00 56 1017.7
20260508154544 65 183 2.0 5.0 0.00 0.00 0.00 57 1017.9
20260508154031 65 220 1.0 5.0 0.00 0.00 0.00 60 1017.9
20260508153532 65 146 1.0 5.0 0.00 0.00 0.00 64 1017.9
20260508153056 64 232 1.0 4.0 0.00 0.00 0.00 61 1017.9
20260508152534 64 139 0.0 6.0 0.00 0.00 0.00 61 1017.9
20260508152034 63 132 2.0 6.0 0.00 0.00 0.00 57 1018.1
20260508151547 63 244 1.0 9.0 0.00 0.00 0.00 60 1018.0
20260508151032 63 253 4.0 12.0 0.00 0.00 0.00 64 1018.0
20260508150531 64 214 4.0 12.0 0.00 0.00 0.00 57 1018.0
20260508150046 64 180 1.0 4.0 0.00 0.00 0.00 65 1018.0
20260508145530 63 103 0.0 6.0 0.00 0.00 0.00 60 1018.0
20260508145035 63 153 1.0 6.0 0.00 0.00 0.00 65 1017.9
20260508144550 62 253 3.0 9.0 0.00 0.00 0.00 61 1018.0
20260508144035 62 211 3.0 9.0 0.00 0.00 0.00 63 1018.1
20260508143534 62 203 4.0 9.0 0.00 0.00 0.00 60 1018.0
20260508143049 62 0 1.0 5.0 0.00 0.00 0.00 62 1018.1
20260508142534 62 204 0.0 5.0 0.00 0.00 0.00 67 1018.4
20260508142034 62 104 1.0 4.0 0.00 0.00 0.00 61 1018.4
20260508141550 62 113 1.0 6.0 0.00 0.00 0.00 64 1018.4
20260508141035 61 0 0.0 6.0 0.00 0.00 0.00 71 1018.3
20260508140534 61 180 2.0 6.0 0.00 0.00 0.00 64 1018.3
20260508140046 62 198 2.0 6.0 0.00 0.00 0.00 68 1018.5
20260508135534 61 0 1.0 3.0 0.00 0.03 0.00 73 1018.5
20260508135034 61 132 0.0 3.0 0.00 0.03 0.00 74 1018.5
20260508134551 61 227 0.0 3.0 0.00 0.03 0.00 77 1018.5
20260508134034 60 0 0.0 3.0 0.00 0.03 0.00 81 1018.4
20260508133534 60 0 0.0 3.0 0.00 0.03 0.00 80 1018.4
20260508133048 59 0 1.0 4.0 0.00 0.03 0.00 77 1018.4
20260508132535 59 0 1.0 4.0 0.00 0.03 0.00 82 1018.4
20260508132034 59 48 0.0 3.0 0.00 0.03 0.00 82 1018.4
20260508131552 58 0 0.0 3.0 0.00 0.03 0.00 85 1018.4
20260508131036 58 0 1.0 3.0 0.00 0.03 0.00 84 1018.3
20260508130538 57 42 1.0 3.0 0.00 0.03 0.00 85 1018.2
20260508130048 56 70 0.0 3.0 0.00 0.03 0.00 88 1018.2
20260508125534 56 0 0.0 2.0 0.00 0.08 0.00 86 1018.3
20260508125034 56 98 0.0 2.0 0.00 0.08 0.00 87 1018.2
20260508124544 55 116 0.0 2.0 0.00 0.08 0.00 89 1018.1
20260508124033 54 67 1.0 2.0 0.00 0.08 0.00 90 1018.0
20260508123534 54 0 0.0 2.0 0.00 0.08 0.00 92 1017.9
20260508123047 53 0 1.0 2.0 0.00 0.08 0.00 92 1017.9
20260508122534 52 65 0.0 2.0 0.00 0.08 0.00 93 1017.9
20260508122033 51 0 0.0 2.0 0.00 0.08 0.00 94 1017.9
20260508121544 51 65 1.0 2.0 0.00 0.08 0.00 94 1017.8
20260508121034 51 69 0.0 2.0 0.00 0.08 0.00 95 1017.7
20260508120534 50 300 0.0 2.0 0.00 0.08 0.00 96 1017.6
20260508115534 49 0 0.0 0.0 0.00 0.16 0.00 96 1017.5
20260508115033 49 0 0.0 0.0 0.00 0.16 0.00 96 1017.5
20260508114554 48 0 0.0 1.0 0.00 0.16 0.00 96 1017.4
20260508114037 48 0 0.0 1.0 0.00 0.16 0.00 96 1017.3
20260508113534 47 0 0.0 1.0 0.00 0.16 0.00 96 1017.2
20260508113053 47 0 0.0 0.0 0.00 0.16 0.00 95 1017.2
20260508112534 47 0 0.0 1.0 0.00 0.16 0.00 95 1017.0
20260508112034 47 0 0.0 1.0 0.00 0.16 0.00 95 1016.9
20260508111546 47 0 0.0 1.0 0.00 0.16 0.00 96 1016.8
20260508111033 47 300 0.0 1.0 0.00 0.16 0.00 96 1016.8
20260508110531 47 0 0.0 1.0 0.00 0.16 0.00 95 1016.8
20260508110100 47 0 0.0 1.0 0.00 0.16 0.00 95 1016.7
20260508105534 47 0 0.0 1.0 0.00 0.17 0.00 95 1016.6
20260508105034 47 0 0.0 1.0 0.00 0.17 0.00 95 1016.5
20260508104547 47 0 0.0 1.0 0.00 0.17 0.00 95 1016.5
20260508104034 47 0 0.0 1.0 0.00 0.17 0.00 95 1016.4
20260508103531 47 0 0.0 1.0 0.00 0.17 0.00 95 1016.3
20260508103058 47 0 0.0 1.0 0.00 0.17 0.00 95 1016.3
20260508102533 47 0 0.0 1.0 0.00 0.17 0.00 94 1016.3
20260508102031 47 0 0.0 0.0 0.00 0.17 0.00 94 1016.1
20260508101550 47 0 0.0 2.0 0.00 0.17 0.00 95 1016.2
20260508101034 47 0 0.0 2.0 0.00 0.17 0.00 95 1015.9
20260508100531 47 0 0.0 0.0 0.00 0.17 0.00 95 1015.8
20260508100046 47 0 0.0 0.0 0.00 0.17 0.00 95 1015.7
20260508095531 47 0 0.0 2.0 0.00 0.17 0.00 95 1015.7
20260508095030 47 0 0.0 2.0 0.00 0.17 0.00 95 1015.8
20260508094546 48 290 1.0 2.0 0.00 0.17 0.00 95 1015.5
20260508094030 48 290 0.0 1.0 0.00 0.17 0.00 95 1015.5
20260508093531 48 0 0.0 1.0 0.00 0.17 0.00 95 1015.7
20260508093046 48 290 0.0 1.0 0.00 0.17 0.00 95 1015.6
20260508092531 48 0 0.0 1.0 0.00 0.17 0.00 96 1015.6
20260508092031 47 0 0.0 1.0 0.00 0.17 0.00 95 1015.6
20260508091549 47 0 0.0 1.0 0.00 0.17 0.00 95 1015.5
20260508091032 47 0 0.0 2.0 0.00 0.17 0.00 95 1015.6
20260508090533 47 0 0.0 2.0 0.00 0.17 0.00 95 1015.6
20260508090052 47 263 1.0 2.0 0.00 0.17 0.00 95 1015.6
20260508085532 47 0 0.0 1.0 0.00 0.22 0.00 95 1015.5
20260508085031 47 0 0.0 1.0 0.00 0.22 0.00 95 1015.5
20260508084543 47 0 0.0 1.0 0.00 0.22 0.00 95 1015.4
20260508084031 47 0 0.0 1.0 0.00 0.22 0.00 94 1015.5
20260508083533 47 0 0.0 1.0 0.00 0.22 0.00 94 1015.5
20260508083048 47 0 0.0 1.0 0.00 0.22 0.00 94 1015.3
20260508082531 47 0 0.0 0.0 0.00 0.22 0.00 93 1015.2
20260508082033 47 0 0.0 0.0 0.00 0.22 0.00 93 1015.3
20260508081548 47 0 0.0 0.0 0.00 0.22 0.00 93 1015.4
20260508081031 47 0 0.0 0.0 0.00 0.22 0.00 93 1015.2
20260508080535 47 0 0.0 0.0 0.00 0.22 0.00 93 1015.2
20260508080054 47 0 0.0 0.0 0.00 0.22 0.00 93 1015.1
20260508075534 48 0 0.0 1.0 0.00 0.22 0.00 94 1015.1
20260508075033 48 0 0.0 1.0 0.00 0.22 0.00 94 1015.0
20260508074547 48 0 0.0 1.0 0.00 0.22 0.00 93 1015.1
20260508074031 48 0 0.0 1.0 0.00 0.22 0.00 93 1014.9
20260508073534 48 0 0.0 1.0 0.00 0.22 0.00 93 1014.9
20260508073055 48 0 0.0 0.0 0.00 0.22 0.00 93 1014.7
20260508072534 48 0 0.0 0.0 0.00 0.22 0.00 93 1014.7
20260508072034 48 0 0.0 0.0 0.00 0.22 0.00 92 1014.9
20260508071545 48 0 0.0 0.0 0.00 0.22 0.00 92 1014.8
20260508071031 48 0 0.0 0.0 0.00 0.22 0.00 92 1014.7
20260508070534 48 0 0.0 0.0 0.00 0.22 0.00 92 1014.6
20260508070043 49 0 0.0 0.0 0.00 0.22 0.00 92 1014.6
20260508065535 49 0 0.0 0.0 0.00 0.24 0.00 92 1014.5
20260508065035 49 0 0.0 0.0 0.00 0.24 0.00 92 1014.5
20260508064548 49 0 0.0 0.0 0.00 0.24 0.00 91 1014.4
20260508064037 49 0 0.0 2.0 0.00 0.24 0.00 91 1014.5
20260508063535 49 0 0.0 2.0 0.00 0.24 0.00 91 1014.5
20260508063100 49 0 0.0 2.0 0.00 0.24 0.00 92 1014.5
20260508062533 49 0 0.0 0.0 0.00 0.24 0.00 91 1014.4
20260508062034 49 0 0.0 0.0 0.00 0.24 0.00 91 1014.4
20260508061547 49 0 0.0 0.0 0.00 0.24 0.00 91 1014.5
20260508061034 50 0 0.0 0.0 0.00 0.24 0.00 91 1014.3
20260508060534 50 0 0.0 1.0 0.00 0.24 0.00 91 1014.4
20260508060049 50 0 0.0 2.0 0.00 0.24 0.00 90 1014.4
20260508055534 50 0 0.0 2.0 0.00 0.30 0.00 91 1014.4
20260508055031 50 138 0.0 2.0 0.00 0.30 0.00 90 1014.4
20260508054543 50 0 0.0 2.0 0.00 0.30 0.00 89 1014.5
20260508054035 51 165 0.0 0.0 0.00 0.30 0.00 89 1014.5
20260508053534 51 0 0.0 0.0 0.00 0.30 0.00 88 1014.5
20260508053046 51 0 0.0 0.0 0.00 0.30 0.00 89 1014.5
20260508052534 51 0 0.0 0.0 0.00 0.30 0.00 89 1014.4
20260508052034 51 0 0.0 0.0 0.00 0.30 0.00 87 1014.4
20260508051543 51 0 0.0 0.0 0.00 0.30 0.00 87 1014.3
20260508051036 51 0 0.0 0.0 0.00 0.30 0.00 88 1014.3
20260508050535 51 0 0.0 1.0 0.00 0.30 0.00 87 1014.4
20260508050044 52 0 0.0 1.0 0.00 0.30 0.00 87 1014.3
20260508045530 52 213 0.0 2.0 0.00 0.39 0.00 87 1014.2
20260508045034 52 0 0.0 2.0 0.00 0.39 0.00 85 1014.2
20260508044545 52 159 0.0 2.0 0.00 0.39 0.00 85 1014.1
20260508044033 52 159 0.0 2.0 0.00 0.39 0.00 85 1014.2
20260508043534 52 0 0.0 2.0 0.00 0.39 0.00 85 1014.1
20260508043056 52 0 0.0 2.0 0.00 0.39 0.00 86 1014.1
20260508042534 53 0 0.0 2.0 0.00 0.39 0.00 86 1014.1
20260508042031 53 0 0.0 2.0 0.00 0.39 0.00 84 1013.9
20260508041550 53 0 0.0 2.0 0.00 0.39 0.00 84 1013.9
20260508041031 53 131 0.0 2.0 0.00 0.39 0.00 82 1013.9
20260508040531 53 0 0.0 2.0 0.00 0.39 0.00 82 1013.8
20260508040045 53 0 0.0 2.0 0.00 0.39 0.00 82 1014.0
20260508035530 53 0 0.0 2.0 0.00 0.39 0.39 83 1014.0
20260508035034 54 99 0.0 3.0 0.00 0.39 0.39 82 1013.9
20260508034547 54 0 0.0 3.0 0.00 0.39 0.39 82 1014.0
20260508034030 54 181 0.0 2.0 0.00 0.39 0.39 82 1014.0
20260508033531 54 0 0.0 2.0 0.00 0.39 0.39 77 1014.0
20260508033048 55 252 0.0 2.0 0.00 0.39 0.39 78 1014.0
20260508032531 55 252 1.0 2.0 0.00 0.39 0.39 78 1013.9
20260508032030 55 0 0.0 1.0 0.00 0.39 0.39 79 1013.9
20260508031544 55 0 0.0 1.0 0.00 0.39 0.39 78 1013.9
20260508031033 55 193 0.0 2.0 0.00 0.39 0.39 78 1013.9
20260508030531 56 0 0.0 2.0 0.00 0.39 0.39 74 1013.9
20260508030045 56 0 0.0 2.0 0.00 0.39 0.39 74 1013.9
20260508025535 56 0 0.0 2.0 0.00 0.44 0.39 73 1013.9
20260508025035 56 0 1.0 3.0 0.00 0.44 0.39 74 1013.8
20260508024553 56 254 1.0 3.0 0.00 0.44 0.39 75 1013.8
20260508024034 56 262 0.0 2.0 0.00 0.44 0.39 75 1013.7
20260508023534 57 262 0.0 2.0 0.00 0.44 0.39 76 1013.6
20260508023044 57 0 0.0 2.0 0.00 0.44 0.39 75 1013.5
20260508022534 57 266 0.0 2.0 0.00 0.44 0.39 73 1013.5
20260508022034 57 169 1.0 2.0 0.00 0.44 0.39 73 1013.3
20260508021555 57 257 1.0 2.0 0.00 0.44 0.39 74 1013.3
20260508021033 57 257 0.0 2.0 0.00 0.44 0.39 72 1013.2
20260508020531 58 0 0.0 2.0 0.00 0.44 0.39 69 1013.2
20260508020049 58 257 0.0 2.0 0.00 0.44 0.39 68 1013.2
20260508015533 58 257 0.0 6.0 0.00 0.46 0.39 70 1013.2
20260508015034 59 0 1.0 6.0 0.00 0.46 0.39 67 1013.1
20260508014549 59 0 0.0 2.0 0.00 0.46 0.39 69 1012.9
20260508014033 59 86 0.0 3.0 0.00 0.46 0.39 63 1012.8
20260508013533 59 90 0.0 4.0 0.00 0.46 0.39 64 1012.6
20260508013053 59 102 1.0 4.0 0.00 0.46 0.39 64 1012.5
20260508012533 59 0 1.0 7.0 0.00 0.46 0.39 64 1012.4
20260508012034 59 0 1.0 7.0 0.00 0.46 0.39 67 1012.1
20260508011549 60 263 2.0 6.0 0.00 0.46 0.39 66 1012.1
20260508011034 60 134 1.0 5.0 0.00 0.46 0.39 63 1012.0
20260508010534 60 76 2.0 7.0 0.00 0.46 0.39 64 1012.0
20260508010047 60 196 2.0 7.0 0.00 0.46 0.39 66 1011.9
20260508005535 60 257 2.0 8.0 0.00 0.57 0.39 65 1011.7
20260508005039 60 238 1.0 8.0 0.00 0.57 0.39 72 1011.7
20260508004544 60 124 1.0 5.0 0.00 0.57 0.39 71 1011.6
20260508004038 60 5 1.0 6.0 0.00 0.57 0.39 68 1011.5
20260508003537 61 0 1.0 6.0 0.00 0.57 0.39 71 1011.5
20260508003048 61 186 3.0 6.0 0.00 0.57 0.39 68 1011.5
20260508002534 61 159 1.0 9.0 0.00 0.57 0.39 69 1011.4
20260508002035 61 169 1.0 9.0 0.00 0.57 0.39 74 1011.3
20260508001606 62 301 2.0 9.0 0.00 0.57 0.39 71 1011.1
20260508001037 62 232 2.0 7.0 0.00 0.57 0.39 68 1011.1
20260508000534 62 283 2.0 8.0 0.00 0.57 0.39 72 1011.0
20260508000051 62 159 1.0 9.0 0.00 0.57 0.39 67 1010.9
20260507235534 63 153 2.0 9.0 0.00 0.69 0.39 69 1010.9
20260507235034 63 0 1.0 7.0 0.00 0.69 0.39 68 1010.8
20260507234550 63 267 1.0 7.0 0.00 0.69 0.39 71 1010.8
20260507234058 63 180 2.0 7.0 0.00 0.69 0.39 68 1010.8
20260507233534 63 0 2.0 7.0 0.00 0.69 0.39 70 1010.7
20260507233046 64 19 2.0 6.0 0.00 0.69 0.39 69 1010.7
20260507232535 64 275 2.0 8.0 0.00 0.69 0.39 69 1010.6
20260507232034 64 254 1.0 8.0 0.00 0.69 0.39 70 1010.5
20260507231545 64 199 1.0 4.0 0.00 0.69 0.39 72 1010.4
20260507231034 65 300 1.0 9.0 0.00 0.69 0.39 73 1010.4
20260507230535 65 268 1.0 9.0 0.00 0.69 0.39 71 1010.4
20260507230046 65 257 3.0 9.0 0.00 0.69 0.39 73 1010.2
20260507225536 66 302 1.0 10.0 0.00 0.73 0.39 73 1010.2
20260507225034 66 252 2.0 12.0 0.00 0.73 0.39 74 1010.1
20260507224553 67 5 3.0 12.0 0.00 0.73 0.39 75 1010.0
20260507224034 67 236 1.0 10.0 0.00 0.73 0.39 73 1009.9
20260507223534 67 299 3.0 12.0 0.00 0.73 0.39 69 1009.7
20260507223047 67 263 3.0 14.0 0.00 0.73 0.39 67 1009.5
20260507222535 68 234 3.0 14.0 0.00 0.73 0.39 67 1009.4
20260507222033 68 277 3.0 8.0 0.00 0.73 0.39 72 1009.3
20260507221545 69 248 2.0 10.0 0.00 0.73 0.39 69 1009.2
20260507221031 69 13 3.0 10.0 0.00 0.73 0.39 69 1009.0
20260507220531 70 248 3.0 9.0 0.00 0.73 0.39 65 1009.0
20260507220047 70 301 2.0 12.0 0.00 0.73 0.39 69 1009.1
20260507215533 71 269 3.0 12.0 0.00 0.73 0.39 68 1008.9
20260507215031 71 219 3.0 8.0 0.00 0.73 0.39 68 1008.8
20260507214546 71 313 2.0 8.0 0.00 0.73 0.39 69 1008.8
20260507214033 71 115 2.0 12.0 0.00 0.73 0.39 65 1008.6